Location: Altamira
(10.5079°N, 66.8544°W)
Time: 00:58:16
(UTC+00:00)

Hubble Space Telescope - Visible Passes

Search period start: 01 December 2023 00:00
Search period end: 11 December 2023 00:00
Orbit: 519 x 523 km, 28.5° (Epoch: 30 November)

Date Brightness Start Highest point End Pass type
(mag) Time Alt. Az. Time Alt. Az. Time Alt. Az.
01 Dec 3.1 23:06:56 10° N 23:07:14 10° N 23:07:14 10° N visible
02 Dec 2.8 22:49:46 10° N 22:51:19 12° NNE 22:52:10 11° NNE visible
03 Dec 2.7 22:32:56 10° NNW 22:35:02 14° NNE 22:37:08 10° NE visible
04 Dec 3.7 00:12:10 10° NW 00:12:14 10° NW 00:12:14 10° NW visible
04 Dec 2.6 23:55:43 10° WNW 23:57:27 24° NW 23:57:27 24° NW visible
05 Dec 0.8 23:39:16 10° WNW 23:42:49 69° WNW 23:42:49 69° WNW visible
06 Dec 0.8 23:22:51 10° WNW 23:26:51 71° SSW 23:28:22 35° SE visible
07 Dec 1.4 23:06:27 10° WNW 23:10:22 54° SSW 23:14:06 11° SE visible
08 Dec 1.9 22:50:05 10° WNW 22:53:53 41° SSW 22:57:42 10° SE visible
09 Dec 2.5 22:33:46 10° W 22:37:23 32° SSW 22:41:00 10° SE visible
